Texas Shootout - PRE TRAINING INVENTORY

Station: LOFT CHECK - T Race

Distance: 1 Miles    

Release: 10-Oct-2017 08:15

Weather Release:    Arrival:

Wind at Release:     Wind at Arrival:

Temp at Release: °    Temp at Arrival: °

Lofts: 162

Birds: 935

Clocked: 932

HAND INVENTORY THIS IS ALL THERE IS IN THE LOFT
Drops Pos Breeder Pigeon Name Color Sex Ent Arrival Speed To Win Eligible
1 Cbs & Steve - OK 1428-AU17-CBS BC C 1 08:37:40.18 77.637 00:00:00 Yes
2 Baden Feed - ON 7141-IF17-S BC H 1 08:37:54.98 76.801 00:00:15 Yes
3 Duffy's Loft - TX 9794-AU17-FOYS BC H 1 08:38:09.45 76.001 00:00:29 Yes
4 Chen Loft - PA 1081-AU17-TFC BBPD H 1 08:38:19.53 75.454 00:00:39 Yes
5 West Wing Syndicate - TX 1164-AU17-WWC BKSP H 1 08:38:32.35 74.769 00:00:52 Yes
6 Flying D Loft - TX 0304-AU17-FLYD BB H 1 08:38:46.78 74.013 00:01:07 Yes
7 L & L Loft - AL 17035-AU17-LL BC H 1 08:39:04.45 73.107 00:01:24 Yes
8 Dream Team - VT 0818-AU17-JCZL BC H 1 08:39:14.46 72.604 00:01:34 Yes
9 Richard Callahan - MO 37933-AU17-AA DC C 1 08:39:25.70 72.047 00:01:46 Yes
10 Bynum Family Lofts - TX 0221-AU17-BFL BB C 1 08:39:34.70 71.608 00:01:55 Yes
11 Quest Syndicate - TX 16071-AU17-QS BB H 1 08:39:46.57 71.036 00:02:06 Yes
12 Drama Queen Loft - TX 1277-AU17-GCI BB H 1 08:40:01.42 70.333 00:02:21 Yes
13 Elton Dinga - TX 12116-AU17-AA Kruger x Klaas BB C 1 08:40:15.60 69.675 00:02:35 Yes
14 Sandstrom Brothers Loft - MN 0788-AU17-SBL BC C 1 08:40:24.63 69.263 00:02:44 Yes
15 Robin & Brenda - TX 0339-AU17-WWC Otis BC H 1 08:40:38.10 68.656 00:02:58 Yes
16 Rossi Loft Llc - WI 2088-AU17-KEN BB H 1 08:40:48.65 68.188 00:03:08 Yes
17 Baden Feed - ON 90306-IF17-E GRIZ C 2 08:41:01.63 67.622 00:03:21 Yes
18 Cajun Express Loft - LA 10962-AU17-AA BCPD H 1 08:41:16.06 67.003 00:03:36 Yes
19 Milestone Loft - CA 0175-AU17-SD BB H 1 08:41:24.79 66.633 00:03:45 Yes
20 Zheng Loft - FL 0117-AU17-LIN BB H 1 08:41:36.74 66.135 00:03:57 Yes
21 Ecker/Murphy Syndicate - PA 1499-AU17-GSV DCWF H 1 08:41:49.09 65.627 00:04:09 Yes
22 Elton Dinga - TX 12105-AU17-AA Klaas 405 x 1132 BB H 2 08:42:01.12 65.140 00:04:21 Yes
23 Da Dong - WI 0340-AU17-RAC BB C 1 08:42:16.92 64.511 00:04:37 Yes
24 Chinese Union 2 - VA 0100-AU17-CHAN BB C 1 08:42:30.32 63.988 00:04:50 Yes
25 Hugo Family Loft - IL 93088-IF17-E BB C 1 08:42:38.17 63.685 00:04:58 Yes
26 777 Victory Loft - NY 0147-AU17-NYLN BBPD H 1 08:42:52.35 63.145 00:05:12 Yes
27 Black Magic Loft - TX 0404-AU17-BLKM BC H 1 08:43:04.13 62.703 00:05:24 Yes
28 Liqingni Loft - NY 0287-AU17-YANG BB H 1 08:43:15.28 62.291 00:05:35 Yes
29 Russell Hall - TX 7015-AU17-HALL BB H 1 08:43:24.65 61.948 00:05:44 Yes
30 New Orleans Boys 2 - LA 0341-AU17-MET BB H 1 08:43:32.67 61.658 00:05:52 Yes
31 O & L De Vries - ON 2430-AU17-OL BB C 1 08:43:43.84 61.259 00:06:04 Yes
32 Baudy Loft - LA 1290-AU17-CRSO BC C 1 08:43:57.37 60.782 00:06:17 Yes
33 Liqingni Loft - NY 0288-AU17-YANG BB C 2 08:44:12.26 60.265 00:06:32 Yes
34 Elton Dinga - TX 12084-AU17-AA Schaerlaeck x Jansen BB H 3 08:44:20.76 59.974 00:06:41 Yes
35 Baldwin / Tilson - NC 7220-AU17-TNTL BBWF H 1 08:44:33.24 59.552 00:06:53 Yes
36 Little Reata Loft - TX 17341-AU17-JETT BCWF H 1 08:44:45.63 59.139 00:07:05 Yes
37 Dave Byer - CA 5718-AU17-ARPU BB C 1 08:44:58.96 58.701 00:07:19 Yes
38 Bynum Family Lofts - TX 0202-AU17-BFL BBPD H 2 08:45:09.96 58.344 00:07:30 Yes
39 Charlie Barbiere - NJ 1948-IF17-BSC BB H 1 08:45:21.62 57.970 00:07:41 Yes
40 Y Mtn Loft - TN 26200-AU17-YMTN BB C 1 08:45:31.31 57.664 00:07:51 Yes
41 Franco Loft - TX 0776-AU17-DEN SIL C 1 08:45:43.73 57.275 00:08:04 Yes
42 Liqingni Loft - NY 0258-AU17-YANG BB H 3 08:45:59.17 56.800 00:08:19 Yes
43 Floating Feather Loft - TX 1339-AU17-CVL BB H 1 08:46:14.48 56.336 00:08:34 Yes
44 Tulsa Racers - OK 1500-AU17-REED SIL C 1 08:46:31.43 55.831 00:08:51 Yes
45 Relax & Barger - CA 0708-AU17-OBC BC C 1 08:46:47.28 55.367 00:09:07 Yes
46 Nemeth Loft - CA 8784-AU17-BON BB H 1 08:47:02.56 54.927 00:09:22 Yes
47 Zhenyuan Guo - SC 0684-AU17-GUO BC H 1 08:47:13.93 54.604 00:09:34 Yes
48 Zhenyuan Guo - SC 0686-AU17-GUO BC H 2 08:47:25.73 54.273 00:09:46 Yes
49 Carroll Hoover - PA 1137-IF17-RLPC BB H 1 08:47:42.29 53.815 00:10:02 Yes
50 Casale/Miner - CA 1720-AU17-VG BBPD C 1 08:47:54.32 53.487 00:10:14 Yes
51 Bionic Loft - LA 0627-AU17-CAJN BB C 1 08:48:09.85 53.069 00:10:30 Yes
52 Y Mtn Loft - TN 0166-AU17-ARPU BC C 2 08:48:23.38 52.711 00:10:43 Yes
53 K & J Loft - OK 1730-AU17-VK BBWF C 1 08:48:38.12 52.326 00:10:58 Yes
54 Arandas Loft - TX 14366-AU17-ARPU BB H 1 08:48:48.10 52.068 00:11:08 Yes
55 A P C Loft - TX 17311-AU17-APC GRIZ H 1 08:49:04.23 51.658 00:11:24 Yes
56 Sky King Loft - TX 16906-AU17-QS BC H 1 08:49:16.13 51.359 00:11:36 Yes
57 Bill Wisdom - TX 0345-AU17-DEN BB H 1 08:49:26.54 51.100 00:11:46 Yes
58 New Orleans Boys - LA 0748-AU17-MET BC H 1 08:49:40.43 50.759 00:12:00 Yes
59 Nemelka Racing Pigeon Loft - UT 7142-AU17-NRPL 4010 x Miss Beaut BC H 1 08:49:54.57 50.416 00:12:14 Yes
60 Sandstrom Brothers Loft - MN 0790-AU17-SBL BC H 2 08:50:06.53 50.130 00:12:26 Yes
61 Taj Syndicate - TX 11826-AU17-GHC BC C 1 08:50:18.76 49.840 00:12:39 Yes
62 Chen Loft - PA 0127-AU17-TFC BC H 2 08:50:31.54 49.542 00:12:51 Yes
63 Zhenyuan Guo - SC 0689-AU17-GUO BC H 3 08:50:43.31 49.270 00:13:03 Yes
64 Fleet Washington - DC 1784-AU17-FLTW BC H 1 08:50:55.78 48.985 00:13:16 Yes
65 Elton Dinga - TX 12150-AU17-AA Jansen x Sablon BC H 4 08:51:11.88 48.621 00:13:32 Yes
66 Nemelka Racing Pigeon Loft - UT 7140-AU17-NRPL Florian x New Gaga BB C 2 08:51:25.85 48.311 00:13:46 Yes
67 Kwan Loft - CA 0795-AU17-KWAN BWFP H 1 08:51:48.54 47.814 00:14:08 Yes
68 Utaz Boys/ Jones - UT 1086-AU17-SLI BCWF C 1 08:52:04.24 47.477 00:14:24 Yes
69 Dream Union - DC 1122-IF17-SLP BB H 1 08:52:20.21 47.138 00:14:40 Yes
70 Floating Feather Loft - TX 1343-AU17-CVL BB C 2 08:52:33.62 46.858 00:14:53 Yes
71 Zheng Loft - FL 8891-AU17-ZHEN BC C 2 08:52:44.81 46.626 00:15:05 Yes
72 Dream Union - DC 1167-IF17-SLP BB C 2 08:53:02.37 46.268 00:15:22 Yes
73 Quest Syndicate - TX 16001-AU17-QS BC H 2 08:53:13.62 46.041 00:15:33 Yes
74 Utaz Boys/ Jones - UT 1055-AU17-SLI BB H 2 08:53:28.54 45.743 00:15:48 Yes
75 Dream Team - VT 0816-AU17-JCZL BC H 2 08:53:43.51 45.448 00:16:03 Yes
76 Russell Hall - TX 7023-AU17-HALL BBSP H 2 08:53:58.21 45.163 00:16:18 Yes
77 Arandas Loft - TX 14359-AU17-ARPU BB H 2 08:54:08.23 44.970 00:16:28 Yes
78 Neighbor Hood Bullies - TX 0543-AU17-WF BB H 1 08:54:21.32 44.721 00:16:41 Yes
79 Bill Kluge - TX 1701-AU17-COLD BB C 1 08:54:37.29 44.420 00:16:57 Yes
80 Kim Wong - VT 10892-AU17-ARPU BB C 1 08:54:47.60 44.229 00:17:07 Yes
81 Racing Pigeon Mall - WA 0711-AU17-RPM BB C 1 08:54:59.15 44.016 00:17:19 Yes
82 Neighbor Hood Bullies - TX 0766-AU17-WF BB H 2 08:55:08.51 43.845 00:17:28 Yes
83 Gossett & Son - TX 1006-AU17-WF BBWF C 1 08:55:23.63 43.571 00:17:43 Yes
84 Charlie Barbiere - NJ 1923-IF17-BSC BB H 2 08:55:36.63 43.339 00:17:56 Yes
85 Holleys Silver Star - TX 0933-AU17-DEN RC C 1 08:55:52.32 43.061 00:18:12 Yes
86 Relax & Barger - CA 71958-AU17-MAN CWFP C 2 08:56:11.98 42.719 00:18:32 Yes
87 ! ! ! S P E E D S - R A C E R S ! ! ! - FL 3892-AU17-SCHE EL VALDES BB C 1 08:56:25.20 42.492 00:18:45 Yes
88 English Syndicate - UK 12529-GB17-D BB H 1 08:56:36.20 42.304 00:18:56 Yes
89 Baptista - IL 3084-AU17-FOYS RC C 1 08:57:03.04 41.854 00:19:23 Yes
90 Robin & Brenda - TX 0337-AU17-WWC Firecracker RCWF H 2 08:57:19.63 41.581 00:19:39 Yes
91 R P S Loft - CA 1453-AU17-FOYS BBWF C 1 08:57:36.78 41.302 00:19:57 Yes
92 Bill Traw - TX 1289-AU17-GHC RC C 1 08:57:56.40 40.987 00:20:16 Yes
93 French Camp Connection - CA 71984-AU17-MAN BB C 1 08:58:13.81 40.712 00:20:34 Yes
94 Flying D Loft - TX 0198-AU17-FLYD BC H 2 08:58:31.48 40.437 00:20:51 Yes
95 Kim Wong - VT 10896-AU17-ARPU BB H 2 08:58:47.85 40.185 00:21:08 Yes
96 Clear Springs Loft - FL 17101-AU17-WARD BB C 1 08:59:05.21 39.921 00:21:25 Yes
97 Sky Dancer Loft - TX 0324-AU17-WWC Duchess of Dance BC H 1 08:59:16.38 39.753 00:21:36 Yes
98 Tulsa Racers - OK 0767-AU17-TULS BBWF H 2 08:59:30.06 39.550 00:21:50 Yes
99 Richard Callahan - MO 37942-AU17-AA BBWF C 2 08:59:47.03 39.300 00:22:07 Yes
100 Nemelka Racing Pigeon Loft - UT 7136-AU17-NRPL Magician x 1106 BC H 3 09:00:01.65 39.087 00:22:21 Yes

There are 989 bird records

Note: These Race Results are unofficial and subject to change until verified by the Race Committee and declared final.